Yuma MCAS, AZ

1:30 PM MST on November 18, 2017 (GMT -0700)
Yuma Marine Corps Air Station

Weather History for KNYL - February, 2013

Change the Weather History Date:

Thursday, February 21, 2013

  Actual Average Record
Temperature  
Mean Temperature 53 °F 63 °F  
Max Temperature 65 °F 75 °F 89 °F (1982)
Min Temperature 41 °F 51 °F 32 °F (1953)
Degree Days  
Heating Degree Days 12 3  
Month to date heating degree days 117 93  
Since 1 July heating degree days 638 601  
Cooling Degree Days 0 1  
Month to date cooling degree days 8 20  
Year to date cooling degree days 11 26  
Growing Degree Days 2 (Base 50)    
Moisture  
Dew Point 31 °F    
Average Humidity 44    
Maximum Humidity 63    
Minimum Humidity 24    
Precipitation  
Precipitation 0.00 in 0.01 in 0.71 in (1888)
Month to date precipitation 0.01 0.29  
Year to date precipitation 1.03 0.66  
Sea Level Pressure  
Sea Level Pressure 29.98 in    
Wind  
Wind Speed 7 mph (SSE)    
Max Wind Speed 16 mph    
Max Gust Speed 21 mph    
Visibility 10 miles    
Events      
T = Trace of Precipitation, MM = Missing Value Source: NWS Daily Summary

Daily Weather History Graph

Daily Weather History Graph

Search for Another Location

Airport or City:

Trip Planner

Search our weather history database for the weather conditions in past years. The results will help you decide how hot, cold, wet, or windy it might be!

Date:

Astronomy

Feb. 21, 2013 Rise Set
Actual Time 7:14 AM MST 6:29 PM MST
Civil Twilight 6:49 AM MST 6:54 PM MST
Nautical Twilight 6:21 AM MST 7:23 PM MST
Astronomical Twilight 5:52 AM MST 7:51 PM MST
Moon 2:56 PM MST (2/21) 4:13 AM MST (2/21)
Length of Visible Light 12h 04m
Length of Day
11h 14m
Waxing Gibbous, 84% of the Moon is Illuminated
Feb 21
Waxing Gibbous
Feb 25
Full
Mar 4
Last Quarter
Mar 11
New
Mar 19
First Quarter

Hourly Weather History & Observations

Time (MST) Temp. Windchill Dew Point Humidity Pressure Visibility Wind Dir Wind Speed Gust Speed Precip Events Conditions
12:55 AM 46.0 °F 43.1 °F 30.9 °F 56% 29.95 in 10.0 mi South 5.8 mph - N/A   Clear
1:55 AM 44.1 °F 41.5 °F 30.9 °F 60% 29.96 in 10.0 mi SSE 4.6 mph - N/A   Clear
2:55 AM 43.0 °F 41.3 °F 30.0 °F 60% 29.96 in 10.0 mi South 3.5 mph - N/A   Clear
3:00 AM - - - N/A% - - North - - N/A   Unknown
3:55 AM 43.0 °F 38.8 °F 30.0 °F 60% 29.96 in 10.0 mi SSE 6.9 mph - N/A   Clear
4:55 AM 44.1 °F 40.8 °F 28.9 °F 55% 29.95 in 10.0 mi South 5.8 mph - N/A   Clear
5:00 AM - - - N/A% - - North - - N/A   Unknown
5:55 AM 43.0 °F 39.5 °F 30.0 °F 60% 29.96 in 10.0 mi SSE 5.8 mph - N/A   Clear
6:55 AM 41.0 °F - 28.9 °F 62% 29.97 in 10.0 mi Calm Calm - N/A   Clear
7:55 AM 42.1 °F 39.2 °F 30.0 °F 62% 30.00 in 10.0 mi SSE 4.6 mph - N/A   Partly Cloudy
8:55 AM 48.9 °F - 30.0 °F 48% 30.01 in 10.0 mi East 5.8 mph - N/A   Partly Cloudy
9:55 AM 54.0 °F - 30.9 °F 41% 30.02 in 10.0 mi Variable 3.5 mph - N/A   Clear
10:55 AM 57.9 °F - 35.1 °F 42% 30.01 in 10.0 mi SSE 8.1 mph - N/A   Partly Cloudy
11:55 AM 62.1 °F - 32.0 °F 32% 30.00 in 10.0 mi SSW 10.4 mph 18.4 mph N/A   Scattered Clouds
12:55 PM 63.0 °F - 28.9 °F 28% 29.98 in 10.0 mi South 12.7 mph - N/A   Mostly Cloudy
1:55 PM 64.0 °F - 26.1 °F 24% 29.96 in 10.0 mi SSW 10.4 mph - N/A   Mostly Cloudy
2:55 PM 64.0 °F - 27.0 °F 25% 29.94 in 10.0 mi WSW 6.9 mph - N/A   Mostly Cloudy
3:55 PM 63.0 °F - 27.0 °F 26% 29.93 in 10.0 mi WNW 6.9 mph - N/A   Mostly Cloudy
4:55 PM 62.1 °F - 28.0 °F 28% 29.93 in 10.0 mi West 9.2 mph - N/A   Mostly Cloudy
5:55 PM 61.0 °F - 27.0 °F 27% 29.94 in 10.0 mi NW 3.5 mph - N/A   Mostly Cloudy
6:55 PM 60.1 °F - 26.1 °F 27% 29.97 in 10.0 mi NW 5.8 mph - N/A   Mostly Cloudy
7:55 PM 55.0 °F - 39.0 °F 55% 29.99 in 10.0 mi East 9.2 mph - N/A   Scattered Clouds
8:55 PM 53.1 °F - 39.0 °F 59% 30.02 in 10.0 mi ENE 11.5 mph - N/A   Scattered Clouds
9:55 PM 52.0 °F - 39.0 °F 61% 30.04 in 10.0 mi NE 10.4 mph - N/A   Partly Cloudy
10:55 PM 52.0 °F - 39.0 °F 61% 30.05 in 10.0 mi ENE 8.1 mph - N/A   Partly Cloudy
11:55 PM 50.0 °F - 39.0 °F 66% 30.05 in 10.0 mi NE 5.8 mph - N/A   Clear